NOAA 16 DEB, 41350

Orbit data source: Space-Track

NOAA 16 DEB, 41350 is space debris in SSO originally from a launch on Thu, 21 Sep 2000 UTC launched from the Air Force Western Test Range (AFWTR). Debris objects in space refer to the collection of defunct objects orbiting the Earth. Examples of debris include non-operational satellites, rocket bodies, and fragments generated from explosions, collisions, or faulty payload assembly.

Loading next visibility...
Identifier
41350, 2000-055HT
Orbit
SSO
Country
Flag of USUS
Related business
Manufacturer
Unknown
Mission
Spacecraft
Bus & Motor
Unknown
Mass
Unknown
Launch date (UTC)
2000-09-21 (26 years ago)
Launch vehicle
Unknown
Launch site
Air Force Western Test Range (AFWTR)
Object type
Payload
Rocket body
Debris
Shape & HBR
Unknown shape, 0.1 m
Radar Cross Section
Medium (>0.1 m² and <1 m²)

Expand to show TLE details & history
Last TLE update: 5 days ago

TLE from 5 days ago
0 NOAA 16 DEB
1 41350U 00055HT  26202.45510720  .00006116  00000-0  15005-2 0  9996
2 41350  99.0399  68.3750 0019064  33.3062 326.9327 14.52674106543954
Epoch: 2026-07-21T10:55Z
TLE epoch observation values (Epoch: 2026-07-21T10:55:21.262Z)
Latitude
0.00001°
Longitude
-34.68815°
Altitude
708.546 km
Speed
7.507 km/s
True Right ascension
04h 33m 29s
True Declination
0° 00' 00"
Sunlit
Object was in daylight at epoch
Visualization orbit readout
Latitude
Unknown
Longitude
Unknown
Altitude
Unknown
Speed
Unknown
Apparent Right ascension
Unknown
Apparent Declination
Unknown
Sunlit
N/A
Visualization observer readout
Local Sidereal Time
15:19:53
Azimuth
Unknown
Elevation
Unknown
Doppler factor
Unknown
Orbital elements
Apogee altitude
727.58 km
Perigee altitude
700.539 km
Semi-major axis
7,092.196 km
Eccentricity
0.00191
Inclination
99.0399°
RAAN
68.375°
Arg. of periapsis
33.3062°
True anomaly
326.81327°
Mean anomaly
326.9327°
Eccentric anomaly
326.87301°
Mean motion
3.63389 °/min
Orbital period
99.07 mins
BSTAR
0.0015005
Loading maneuver chart data...
Computing Atmospheric mass density...

Documentation

Showing up to 5 results
|